Location: Carrer del Canonge
(41.4901°N, 2.2931°E)
Time: 14:47:19
(UTC+00:00)

Cosmos 372 Rocket - Pass Details

Date: 18 September 2020
Orbit: 739 x 767 km, 74.1° (Epoch: 28 October)

Event Time Altitude Azimuth Distance (km) Brightness Sun altitude
Rises 18:41:27 0° 178° (S) 3,220 7.1 -9.6°
Reaches altitude 10° 18:43:55 10° 171° (S) 2,297 6.3 -10.0°
Maximum altitude 18:48:46 40° 102° (ESE) 1,114 4.4 -10.9°
Drops below altitude 10° 18:53:38 10° 34° (NE) 2,305 6.3 -11.8°
Sets 18:56:07 0° 27° (NNE) 3,231 7.1 -12.3°
